Regional Weather Roundup
Issued by NWS Cleveland, OH

Home | Current Version | Previous Version | Text Only | Print | Product List | Glossary On
Versions: 1 2 3 4 5 6 7 8 9 10 11 12 13 14 15 16 17 18 19 20 21 22 23 24 25 26 27 28 29 30 31 32 33 34 35 36 37 38 39 40 41 42 43 44 45 46 47 48 49 50
000
ASUS41 KCLE 230112
RWRCLE
OHIO REGIONAL WEATHER ROUNDUP
NATIONAL WEATHER SERVICE WILMINGTON, OH
900 PM EDT SAT JUL 22 2017

NOTE: "FAIR" INDICATES FEW OR NO CLOUDS BELOW 12,000 FEET WITH NO
SIGNIFICANT WEATHER AND/OR OBSTRUCTIONS TO VISIBILITY.

OHZ001>008-015>018-024>027-034-035-043-044-230200-
   NORTHWEST OHIO

CITY           SKY/WX    TMP DP  RH WIND       PRES   REMARKS
DEFIANCE       MOCLDY   N/A N/A N/A CALM      29.79S
FINDLAY        FAIR      79  70  74 W6        29.80R
TOLEDO EXPRESS FAIR      79  71  76 W6        29.77S
TOLEDO EXEC    CLOUDY    82  71  69 NW6       29.78R
LIMA           FAIR      78  72  81 W8        29.82R
$$

OHZ009>014-019>023-028>033-038-089-230200-
   NORTHEAST OHIO

CITY           SKY/WX    TMP DP  RH WIND       PRES   REMARKS
CLE-HOPKINS    MOCLDY    82  72  71 SW5       29.79R
CLE-LAKEFRONT  MOCLDY    80  71  74 CALM      29.76R
CUY CO. ARPT   PTCLDY    79  73  83 W6        29.79R
LORAIN-ELYRIA  FAIR      78  68  71 W6        29.78R
ASHTABULA      CLOUDY    75  72  90 CALM      29.80R
AKRON-CANTON   FAIR      79  72  79 W3        29.80S
WOOSTER        FAIR      75  73  93 W6        29.81R
MANSFIELD      FAIR      77  70  79 W6        29.83R
YOUNGSTOWN     MOCLDY    75  71  87 SW5       29.80R
$$

OHZ042-051>053-060>062-070>072-077>081-230200-
  SOUTHWEST OHIO

CITY           SKY/WX    TMP DP  RH WIND       PRES   REMARKS
CINC-COVINGTON MOCLDY    78  76  93 W6        29.84R
CINC-LUNKEN    FAIR      82  75  79 W8        29.82S
HAMILTON       MOCLDY    84  75  74 NW3       29.83R HX  92
DAYTON         MOCLDY    79  71  76 NW5       29.84S
WRIGHT-PAT AFB NOT AVBL
DAYTON GENERAL MOCLDY    83  71  67 W5        29.83S
WILMINGTON     FAIR      82  71  69 NW7       29.83S
$$

OHZ036-037-039>041-045>050-054>059-063>069-073>076-082>088-230200-
  CENTRAL AND SOUTHEAST OHIO

CITY           SKY/WX    TMP DP  RH WIND       PRES   REMARKS
COLUMBUS       MOCLDY    80  72  76 W7        29.81R
OSU AIRPORT    FAIR      78  72  81 W7        29.82R
BOLTON FIELD   FAIR      79  72  79 W3        29.83S
RICKENBACK AFB FAIR      79  72  78 W5        29.81S
NEWARK         MOCLDY    80  76  87 CALM      29.82R
MARION         FAIR      79  70  74 W5        29.83R
LANCASTER      FAIR      77  71  82 W3        29.83R
ZANESVILLE     MOCLDY    76  72  87 SW6       29.82R
NEW PHILLY     FAIR      76  75  97 S3        29.81R
$$



USA.gov is the U.S. government's official web portal to all federal, state and local government web resources and services.